NIEUW!!! Volg onze weer- en natuurfoto's op Instagram @ weerstationmaaseik.be

WS Maaseik 1 Meer informatie WS Maaseik 1


WS Maaseik 2 Meer informatie WS Maaseik 2


Regen radar Meer informatie rain snow radar


Bezoek onze andere website:

Vorige versie
weerstation Maaseik


Bezoek ook eens deze sites:

Weerstation Geleen



Het weer levert geen direct gevaar op.    Er zijn geen waarschuwingen afgegeven.

15 daagse weersverwachting Duisburg (DE)

  • Overzicht
  • Per uur
  • 15 dagen
  • Extra
  • Vergelijk
  • Kaarten
  • Dagkaart
  • Meer »
  • Info
  • Statistieken
  • Directe link
    Temp 6h Neerslag Wind  
 07:27     18:05    Daglengte: 10:38 Vandaag
19:00
1.0 mm
4
 07:25     18:07    Daglengte: 10:42 Morgen
01:00
7.7 mm
6
07:00
14.7 mm
7
13:00
13.8 mm
6
19:00
14.5 mm
6
 07:23     18:09    Daglengte: 10:46 Donderdag 27 Feb
01:00
5.3 mm
4
07:00
2.9 mm
4
warningclass
13:00
8.4 mm
5
19:00
21.5 mm
4
 07:21     18:11    Daglengte: 10:50 Vrijdag 28 Feb
01:00
26.9 mm
4
07:00
 
5
13:00
 
5
Locatie info
Region: Nordrhein-Westfalen
Latitude: 51.4315°N
Longitude: 6.7636°E
38 masl
Postcode: 47051
Temp/Neerslag /Baro Onweer/DauwpuntSneeuw
    Temp Baro 1h Neerslag Dauwpunt Wind UV BewolkingSneeuw  
 07:27     18:05    Daglengte: 10:38 Vandaag
18:00
Voelt als: 3.1°
996.9 hPa
48%
2.9°
5
Windvlaag: 3 m/s
86%
19:00
Voelt als: 2.5°
996.2 hPa 1.0 mm
82%
3.4°
4
Windvlaag: 2.9 m/s
87%
20:00
Voelt als: 1.2°
995.9 hPa 1.6 mm
82%
3.1°
5
Windvlaag: 2.8 m/s
91%
21:00
Voelt als: 1.3°
995.2 hPa 1.5 mm
82%
3.3°
4
Windvlaag: 1.4 m/s
84%
22:00
Voelt als: 0.7°
994.8 hPa 1.6 mm
82%
3.1°
4
Windvlaag: 1.8 m/s
75% warningclass
23:00
Voelt als: 0.8°
994.3 hPa 0.9 mm
82%
2.6°
4
Windvlaag: 2.6 m/s
84%
 07:25     18:07    Daglengte: 10:42 Morgen
00:00
Voelt als: 1.1°
993.3 hPa 0.9 mm
82%
2.6°
4
Windvlaag: 3 m/s
88%
01:00
Voelt als: 0.3°
992.6 hPa 1.2 mm
82%
2.6°
6
Windvlaag: 3.9 m/s
90%
02:00
Voelt als: -1.0°
992.1 hPa 1.8 mm
82%
1.7°
7
Windvlaag: 3.7 m/s
86%1 cm
03:00
Voelt als: -1.4°
991.8 hPa 2.4 mm
82%
1.6°
7
Windvlaag: 2.6 m/s
82%2 cm
04:00
Voelt als: -2.6°
991.4 hPa 2.5 mm
82%
1.2°
7
Windvlaag: 3.2 m/s
81%3 cm
05:00
Voelt als: -2.4°
991.4 hPa 2.4 mm
82%
1.0°
6
Windvlaag: 3.7 m/s
87%4 cm
06:00
Voelt als: -2.4°
991.7 hPa 2.6 mm
82%
1.4°
6
Windvlaag: 4 m/s
89%4 cm
07:00
Voelt als: -2.6°
992.2 hPa 3.0 mm
82%
1.7°
7
Windvlaag: 4.2 m/s
85%4 cm
08:00
Voelt als: -2.6°
993.1 hPa 2.2 mm
82%
1.5°
7
Windvlaag: 4 m/s
89%4 cm
09:00
Voelt als: -2.2°
994.2 hPa 2.1 mm
82%
1.5°
6
Windvlaag: 2.8 m/s
87%3 cm
10:00
Voelt als: -1.6°
995.3 hPa 2.0 mm
82%
1.4°
6
Windvlaag: 2.1 m/s
87%3 cm
11:00
Voelt als: 0.0°
996.0 hPa 3.2 mm
82%
2.3°
6
Windvlaag: 1.7 m/s
86%3 cm
12:00
Voelt als: 0.6°
996.7 hPa 2.1 mm
82%
2.3°
6
Windvlaag: 1.2 m/s
84%3 cm
13:00
Voelt als: 1.4°
997.3 hPa 2.0 mm
82%
2.1°
6
Windvlaag: 1.3 m/s
71%3 cm
14:00
Voelt als: 1.2°
998.0 hPa 2.3 mm
82%
2.1°
7
Windvlaag: 1.3 m/s
70%2 cm warningclass
15:00
Voelt als: 1.5°
998.8 hPa 2.3 mm
82%
2.6°
6
Windvlaag: 1.1 m/s
75%2 cm
16:00
Voelt als: 0.9°
999.7 hPa 2.2 mm
82%
2.2°
7
Windvlaag: 1.6 m/s
74%2 cm
17:00
Voelt als: 0.5°
1000.7 hPa 2.4 mm
82%
1.8°
7
Windvlaag: 1.6 m/s
66%2 cm
18:00
Voelt als: -0.0°
1001.8 hPa 2.7 mm
77%
1.6°
6
Windvlaag: 1.3 m/s
59%2 cm
19:00
Voelt als: -0.5°
1002.9 hPa 2.7 mm
73%
1.0°
6
Windvlaag: 2 m/s
67%2 cm
20:00
Voelt als: -0.4°
1003.8 hPa 2.7 mm
74%
1.2°
5
Windvlaag: 1.9 m/s
34%2 cm
21:00
Voelt als: -0.5°
1004.3 hPa
75%
0.8°
5
Windvlaag: 1.7 m/s
32%2 cm
22:00
Voelt als: -0.9°
1004.8 hPa
24%
0.9°
5
Windvlaag: 1.8 m/s
22%2 cm
23:00
Voelt als: -1.3°
1005.0 hPa
16%
0.4°
4
Windvlaag: 1.8 m/s
24%2 cm
 07:23     18:09    Daglengte: 10:46 Donderdag 27 Feb
00:00
Voelt als: -2.0°
1005.2 hPa
75%
-0.0°
5
Windvlaag: 2.5 m/s
31%2 cm
01:00
Voelt als: -2.2°
1005.1 hPa 2.7 mm
78%
-0.1°
4
Windvlaag: 2.9 m/s
43%2 cm
02:00
Voelt als: -2.2°
1005.1 hPa
30%
-0.0°
4
Windvlaag: 3 m/s
71%2 cm
03:00
Voelt als: -2.2°
1005.0 hPa 2.9 mm
76%
-0.0°
4
Windvlaag: 3.3 m/s
51%2 cm
04:00
Voelt als: -2.6°
1004.5 hPa
22%
-0.2°
4
Windvlaag: 3.7 m/s
55%2 cm
05:00
Voelt als: -2.8°
1004.2 hPa
14%
-0.6°
4
Windvlaag: 3.6 m/s
60%2 cm
06:00
Voelt als: -2.8°
1003.7 hPa
14%
-0.6°
4
Windvlaag: 3.8 m/s
78%2 cm
07:00
Voelt als: -3.0°
1003.3 hPa
14%
-0.9°
4
Windvlaag: 3.7 m/s
89%2 cm
08:00
Voelt als: -3.1°
1002.5 hPa
14%
-1.0°
4
Windvlaag: 4.5 m/s
91%2 cm
09:00
Voelt als: -2.2°
1001.6 hPa
14%
-0.6°
5
Windvlaag: 5.2 m/s
91%2 cm
10:00
Voelt als: -1.2°
1000.5 hPa
21%
-0.5°
4
Windvlaag: 5.4 m/s
100%2 cm
11:00
Voelt als: -0.8°
999.3 hPa 2.9 mm
23%
0.1°
5
Windvlaag: 5.6 m/s
100%2 cm
12:00
Voelt als: -0.4°
997.7 hPa 3.0 mm
95%
0.2°
5
Windvlaag: 4.7 m/s
100%2 cm
13:00
Voelt als: -0.3°
995.9 hPa 2.4 mm
100%
0.5°
5
Windvlaag: 4.9 m/s
100%2 cm
14:00
Voelt als: -0.1°
993.9 hPa 2.6 mm
100%
0.4°
5
Windvlaag: 5.1 m/s
100%2 cm
15:00
Voelt als: -0.4°
992.8 hPa 2.8 mm
100%
0.7°
5
Windvlaag: 5.4 m/s
100%2 cm
16:00
Voelt als: -0.4°
992.2 hPa 3.4 mm
100%
1.2°
4
Windvlaag: 4.8 m/s
100%3 cm
17:00
Voelt als: -0.1°
992.3 hPa 4.2 mm
100%
1.1°
2
Windvlaag: 4 m/s
100%5 cm
18:00
Voelt als: -1.1°
993.4 hPa 4.5 mm
100%
0.7°
3
Windvlaag: -2.1 m/s
100%6 cm
19:00
Voelt als: -2.1°
995.2 hPa 4.0 mm
100%
0.7°
4
Windvlaag: -2.5 m/s
99%6 cm
20:00
Voelt als: -3.2°
997.3 hPa 5.4 mm
100%
1.3°
5
Windvlaag: -3.1 m/s
100%6 cm
21:00
Voelt als: -3.6°
999.7 hPa 5.2 mm
100%
1.1°
6
Windvlaag: -2.9 m/s
96%6 cm
22:00
Voelt als: -3.5°
1002.0 hPa 5.3 mm
100%
0.1°
5
Windvlaag: -1.8 m/s
95%7 cm warningclass
23:00
Voelt als: -2.8°
1003.9 hPa 5.5 mm
100%
0.2°
5
Windvlaag: 0.5 m/s
86%7 cm
 07:21     18:11    Daglengte: 10:50 Vrijdag 28 Feb
00:00
Voelt als: -2.8°
1005.5 hPa 5.5 mm
100%
0.2°
5
Windvlaag: 1.4 m/s
55%7 cm
01:00
Voelt als: -2.7°
1006.8 hPa
35%
-0.0°
4
Windvlaag: 0.9 m/s
23%7 cm
02:00
Voelt als: -3.1°
1008.1 hPa
28%
-0.3°
5
Windvlaag: 2.5 m/s
14%7 cm
03:00
Voelt als: -3.2°
1009.0 hPa
28%
-0.1°
5
Windvlaag: 3.5 m/s
28%6 cm
04:00
Voelt als: -3.0°
1009.8 hPa
34%
-0.2°
5
Windvlaag: 3.2 m/s
11%6 cm
05:00
Voelt als: -3.2°
1010.7 hPa
32%
-0.4°
4
Windvlaag: 3.2 m/s
24%6 cm
06:00
Voelt als: -3.3°
1011.8 hPa
80%
-0.5°
5
Windvlaag: 3.2 m/s
33%6 cm
07:00
Voelt als: -3.5°
1012.6 hPa
35%
-0.5°
5
Windvlaag: 3.5 m/s
18%6 cm
08:00
Voelt als: -2.9°
1013.3 hPa
82%
-0.6°
5
Windvlaag: 7.1 m/s
27%6 cm
09:00
Voelt als: -2.0°
1013.8 hPa
30%
-0.4°
5
Windvlaag: 6.8 m/s
37%6 cm
10:00
Voelt als: -0.6°
1014.0 hPa
21%
0.1°
5
Windvlaag: 6.9 m/s
48%6 cm
11:00
Voelt als: 0.8°
1014.1 hPa
21%
0.6°
5
Windvlaag: 7.1 m/s
69%6 cm
12:00
Voelt als: 2.2°
1014.3 hPa
21%
0.9°
5
Windvlaag: 6.5 m/s
85%5 cm
13:00
Voelt als: 3.0°
1014.3 hPa
21%
0.8°
5
Windvlaag: 2.9 m/s
96%5 cm
14:00
Voelt als: 3.2°
1013.6 hPa
21%
0.9°
5
Windvlaag: 9.2 m/s
98%4 cm
15:00
Voelt als: 2.9°
1013.0 hPa
21%
0.7°
5
Windvlaag: 8.3 m/s
90%4 cm
16:00
Voelt als: 2.6°
1012.3 hPa
21%
0.5°
5
Windvlaag: 8.3 m/s
76%4 cm
17:00
Voelt als: 2.3°
1011.5 hPa
21%
0.4°
4
Windvlaag: 7.5 m/s
89%4 cm
Temp/Neerslag /Baro Onweer/DauwpuntSneeuw
    Temp Baro Neerslag Dauwpunt Wind BewolkingSneeuw  
 07:27     18:05    Daglengte: 10:38 Vandaag
19:00
Voelt als: 2.5°
996.2 hPa 1.0 mm 3.4°
4
87%
22:00
Voelt als: 0.7°
994.8 hPa 4.7 mm 3.1°
4
75% warningclass
 07:25     18:07    Daglengte: 10:42 Morgen
01:00
Voelt als: 0.3°
992.6 hPa 3.0 mm 2.6°
6
90%
04:00
Voelt als: -2.6°
991.4 hPa 6.7 mm 1.2°
7
81%3 cm
07:00
Voelt als: -2.6°
992.2 hPa 8.0 mm 1.7°
7
85%4 cm
10:00
Voelt als: -1.6°
995.3 hPa 6.4 mm 1.4°
6
87%3 cm
13:00
Voelt als: 1.4°
997.3 hPa 7.3 mm 2.1°
6
71%3 cm
16:00
Voelt als: 0.9°
999.7 hPa 6.7 mm 2.2°
7
74%2 cm
19:00
Voelt als: -0.5°
1002.9 hPa 7.8 mm 1.0°
6
67%2 cm
22:00
Voelt als: -0.9°
1004.8 hPa 2.7 mm 0.9°
5
22%2 cm
 07:23     18:09    Daglengte: 10:46 Donderdag 27 Feb
01:00
Voelt als: -2.2°
1005.1 hPa 2.7 mm -0.1°
4
43%2 cm
04:00
Voelt als: -2.6°
1004.5 hPa 2.9 mm -0.2°
4
55%2 cm
07:00
Voelt als: -3.0°
1003.3 hPa   -0.9°
4
89%2 cm
10:00
Voelt als: -1.2°
1000.5 hPa   -0.5°
4
100%2 cm
13:00
Voelt als: -0.3°
995.9 hPa 8.4 mm 0.5°
5
100%2 cm
16:00
Voelt als: -0.4°
992.2 hPa 8.8 mm 1.2°
4
100%3 cm
19:00
Voelt als: -2.1°
995.2 hPa 12.6 mm 0.7°
4
99%6 cm
22:00
Voelt als: -3.5°
1002.0 hPa 15.9 mm 0.1°
5
95%7 cm warningclass
 07:21     18:11    Daglengte: 10:50 Vrijdag 28 Feb
01:00
Voelt als: -2.7°
1006.8 hPa 11.0 mm -0.0°
4
23%7 cm
04:00
Voelt als: -3.0°
1009.8 hPa   -0.2°
5
11%6 cm
07:00
Voelt als: -3.5°
1012.6 hPa   -0.5°
5
18%6 cm
10:00
Voelt als: -0.6°
1014.0 hPa   0.1°
5
48%6 cm
13:00
Voelt als: 3.0°
1014.3 hPa   0.8°
5
96%5 cm
16:00
Voelt als: 2.6°
1012.3 hPa   0.5°
5
76%4 cm
19:00
Voelt als: 1.2°
1010.5 hPa   -0.1°
4
56%3 cm
22:00
Voelt als: -0.5°
1005.3 hPa 35.5 mm 0.6°
7
92%
 07:19     18:12    Daglengte: 10:53 Zaterdag 29 Feb
01:00
Voelt als: -1.2°
1002.7 hPa 35.5 mm 0.9°
8
92%
04:00
Voelt als: 0.9°
998.8 hPa 35.5 mm 3.3°
7
92%
07:00
Voelt als: 3.1°
995.0 hPa 38.6 mm 5.6°
6
92%
10:00
Voelt als: 4.8°
991.8 hPa 38.6 mm 6.6°
7
92%
13:00
10°
Voelt als: 6.6°
988.5 hPa 38.6 mm 7.7°
7
92%
16:00
Voelt als: 4.2°
991.2 hPa 39.1 mm 5.2°
6
75%
19:00
Voelt als: 1.6°
994.5 hPa 41.4 mm 2.5°
5
59%
22:00
Voelt als: -0.0°
997.6 hPa 41.8 mm 1.5°
6
71%
 07:17     18:14    Daglengte: 10:57 Zondag 01 Maa
01:00
Voelt als: -1.4°
1000.4 hPa 42.0 mm 0.2°
7
82%
04:00
Voelt als: -1.7°
1001.0 hPa 42.0 mm -0.1°
7
67%
07:00
Voelt als: -2.2°
1001.6 hPa 42.6 mm -0.3°
7
51%
10:00
Voelt als: 0.5°
1000.7 hPa 42.7 mm 0.3°
7
70%
13:00
Voelt als: 3.2°
999.7 hPa 42.7 mm 0.8°
8
90%
16:00
Voelt als: 1.8°
995.9 hPa 42.8 mm 2.1°
8
90%
19:00
Voelt als: 0.2°
992.1 hPa 42.8 mm 2.9°
8
91%
22:00
Voelt als: 0.2°
992.8 hPa 44.2 mm 3.1°
7
91%
 07:15     18:16    Daglengte: 11:01 Maandag 02 Maa
01:00
Voelt als: 0.5°
993.9 hPa 49.3 mm 3.2°
5
92%
04:00
Voelt als: 0.2°
994.9 hPa 49.7 mm 2.4°
4
72%
07:00
Voelt als: 0.5°
995.9 hPa 49.7 mm 1.7°
2
52%
10:00
Voelt als: 3.8°
996.2 hPa 49.8 mm 1.7°
1
61%
13:00
Voelt als: 7.2°
996.3 hPa 49.8 mm 1.1°
1
69%
16:00
Voelt als: 6.2°
997.0 hPa 49.8 mm 1.9°
1
75%
19:00
998.0 hPa 49.8 mm 2.4°
1
80%
22:00
Voelt als: 3.3°
999.9 hPa 49.8 mm 2.0°
1
77%
 07:12     18:18    Daglengte: 11:06 Dinsdag 03 Maa
01:00
Voelt als: 1.4°
1001.8 hPa 49.8 mm 1.6°
1
73%
04:00
Voelt als: -0.1°
1004.7 hPa 49.8 mm 0.7°
2
68%
07:00
Voelt als: -1.4°
1007.6 hPa 49.8 mm -0.2°
2
63% warningclass
10:00
Voelt als: 0.6°
1009.9 hPa 49.8 mm 0.1°
3
73%
13:00
Voelt als: 3.6°
1012.0 hPa 49.8 mm -0.5°
5
82%
16:00
Voelt als: 2.5°
1013.5 hPa   -0.4°
4
57%
19:00
Voelt als: 1.5°
1014.9 hPa 99.7 mm -0.4°
2
32%
 07:10     18:19    Daglengte: 11:09 Woensdag 04 Maa
01:00
Voelt als: -0.6°
1017.1 hPa 99.8 mm 0.3°
2
49%
07:00
-0°
Voelt als: -3.0°
1017.2 hPa 100.4 mm -1.1°
2
24% warningclass
13:00
Voelt als: 4.0°
1014.8 hPa 101.1 mm -0.4°
4
82%
19:00
Voelt als: 2.7°
1007.5 hPa 103.5 mm -1.8°
5
86%
 07:08     18:21    Daglengte: 11:13 Donderdag 05 Maa
01:00
Voelt als: -1.2°
996.3 hPa 115.0 mm 1.9°
7
92%
07:00
Voelt als: -2.3°
997.1 hPa 121.9 mm 0.3°
6
33%
13:00
Voelt als: 0.6°
994.4 hPa 122.9 mm 3.0°
5
92%
19:00
Voelt als: -0.4°
995.3 hPa 123.7 mm 1.1°
7
87%
 07:06     18:23    Daglengte: 11:17 Vrijdag 06 Maa
01:00
Voelt als: 0.2°
1011.0 hPa 123.9 mm 0.0°
4
0%
07:00
Voelt als: -1.1°
1010.0 hPa 124.0 mm 0.7°
4
0%
13:00
Voelt als: 2.7°
1005.9 hPa 0.7 mm 1.5°
6
56%
19:00
Voelt als: 1.9°
1005.9 hPa 0.7 mm 1.6°
3
65%
 07:04     18:25    Daglengte: 11:21 Zaterdag 07 Maa
01:00
Voelt als: 0.0°
1005.1 hPa 0.6 mm 1.4°
4
67%
07:00
Voelt als: -0.8°
1003.9 hPa 1.3 mm 0.8°
4
71%
13:00
Voelt als: 4.1°
1004.0 hPa 0.6 mm 2.3°
4
71%
19:00
Voelt als: 3.3°
1004.3 hPa 0.3 mm 2.5°
2
71%
 07:01     18:26    Daglengte: 11:25 Zondag 08 Maa
01:00
Voelt als: 1.4°
1006.7 hPa 0.7 mm 1.8°
2
54%
07:00
Voelt als: 1.1°
1008.4 hPa 0.7 mm 0.9°
1
50%
13:00
Voelt als: 5.6°
1010.5 hPa 0.7 mm 2.2°
2
60%
19:00
1012.0 hPa 0.6 mm 1.7°
1
61%
 06:59     18:28    Daglengte: 11:29 Maandag 09 Maa
01:00
Voelt als: 2.2°
1013.0 hPa 0.3 mm 1.2°
1
49%
07:00
Voelt als: 2.1°
1013.0 hPa 0.6 mm 0.4°
1
46%
13:00
1013.6 hPa 0.7 mm 1.4°
1
51%
19:00
Voelt als: 4.6°
1015.2 hPa 0.7 mm 1.4°
1
56%
 06:57     18:30    Daglengte: 11:33 Dinsdag 10 Maa
01:00
Voelt als: 2.2°
1017.2 hPa 0.1 mm 0.9°
1
35%
07:00
Voelt als: 1.1°
1018.1 hPa 0.2 mm 0.6°
1
41%
13:00
Voelt als: 6.6°
1018.7 hPa 0.3 mm 2.5°
2
51%
19:00
Voelt als: 4.7°
1019.4 hPa 0.5 mm 2.2°
2
59%
 06:55     18:31    Daglengte: 11:36 Woensdag 11 Maa
01:00
1021.0 hPa 0.1 mm 1.2°
1
37%
07:00
1021.1 hPa 0.1 mm 0.4°
0
37%
13:00
1020.9 hPa 0.2 mm 1.1°
0
40%
  CAPE Lifted Index Hail Supercell Tornado SRH 3km CL BTM PRES CL TOP PRES Swiss DWD icon SMHI TS
 07:27     18:05    Daglengte: 10:38 Vandaag
18:00 186 J/kg -0.5 K 0 % 0 % 0 % 0 m²/s² 0 0 0.49 80
19:00 155 J/kg -0.4 K 0 % 0 % 0 % 0 m²/s² 0 0 0.38 80
20:00 15 J/kg 2.0 K 0 % 0 % 0 % 0 m²/s² 0 0 2.54 61
21:00 1 J/kg 2.8 K 0 % 0 % 0 % 0 m²/s² 0 0 3.25 80
22:00 0 J/kg 2.2 K 0 % 0 % 0 % 0 m²/s² 0 0 4.69 95
23:00 0 J/kg 1.5 K 0 % 0 % 0 % 0 m²/s² 0 0 5.01 80
 07:25     18:07    Daglengte: 10:42 Morgen
00:00 0 J/kg 1.0 K 0 % 0 % 0 % 0 m²/s² 0 0 4.69 80
01:00 3 J/kg 0.1 K 0 % 0 % 0 % 0 m²/s² 0 0 0.82 80
02:00 0 J/kg 0.5 K 0 % 0 % 0 % 0 m²/s² 0 0 0.98 61
03:00 5 J/kg 0.6 K 0 % 0 % 0 % 0 m²/s² 0 0 1.29 80
04:00 0 J/kg 0.8 K 0 % 0 % 0 % 0 m²/s² 0 0 1.34 61
05:00 1 J/kg 0.2 K 0 % 0 % 0 % 0 m²/s² 0 0 0.86 61
06:00 1 J/kg -0.7 K 0 % 0 % 0 % 0 m²/s² 0 0 -0.16 61
07:00 41 J/kg -0.6 K 0 % 0 % 0 % 0 m²/s² 0 0 0.39 61
08:00 93 J/kg -0.8 K 0 % 0 % 0 % 0 m²/s² 0 0 1.27 61
09:00 132 J/kg -0.7 K 0 % 0 % 0 % 0 m²/s² 0 0 1.31 61
10:00 8 J/kg 0.2 K 0 % 0 % 0 % 0 m²/s² 0 0 1.28 85
11:00 11 J/kg -0.6 K 0 % 0 % 0 % 0 m²/s² 0 0 0.36 3
12:00 200 J/kg -1.2 K 0 % 0 % 0 % 0 m²/s² 0 0 0.39 80
13:00 385 J/kg -1.8 K 0 % 0 % 0 % 0 m²/s² 0 0 0.03 80
14:00 390 J/kg -1.9 K 0 % 0 % 0 % 0 m²/s² 0 0 0.5 95
15:00 264 J/kg -1.2 K 0 % 0 % 0 % 0 m²/s² 0 0 0.51 80
16:00 56 J/kg 0.1 K 0 % 0 % 0 % 0 m²/s² 0 0 1.27 80
17:00 154 J/kg -0.8 K 0 % 0 % 0 % 0 m²/s² 0 0 0.76 80
18:00 380 J/kg -1.9 K 0 % 0 % 0 % 0 m²/s² 0 0 0.98 3
19:00 156 J/kg -0.8 K 0 % 0 % 0 % 0 m²/s² 0 0 3.55 3
20:00 126 J/kg -0.7 K 0 % 0 % 0 % 0 m²/s² 0 0 3.32 80
21:00 101 J/kg -0.2 K 0 % 0 % 0 % 0 m²/s² 0 0 2.92 2
22:00 100 J/kg 0.0 K 0 % 0 % 0 % 0 m²/s² 0 0 2.79 2
23:00 0 J/kg 0.9 K 0 % 0 % 0 % 0 m²/s² 0 0 3.42 2
 07:23     18:09    Daglengte: 10:46 Donderdag 27 Feb
00:00 0 J/kg 2.5 K 0 % 0 % 0 % 0 m²/s² 0 0 3.07 2
01:00 0 J/kg 4.0 K 0 % 0 % 0 % 0 m²/s² 0 0 6.22 2
02:00 16 J/kg 5.2 K 0 % 0 % 0 % 0 m²/s² 0 0 5.86 2
03:00 49 J/kg 5.3 K 0 % 0 % 0 % 0 m²/s² 0 0 8.84 2
04:00 0 J/kg 7.5 K 0 % 0 % 0 % 0 m²/s² 0 0 10.08 2
05:00 0 J/kg 7.9 K 0 % 0 % 0 % 0 m²/s² 0 0 10.3 2
06:00 0 J/kg 8.2 K 0 % 0 % 0 % 0 m²/s² 0 0 10.42 3
07:00 0 J/kg 9.7 K 0 % 0 % 0 % 0 m²/s² 0 0 10.84 3
08:00 0 J/kg 9.4 K 0 % 0 % 0 % 0 m²/s² 0 0 9.97 3
09:00 0 J/kg 9.4 K 0 % 0 % 0 % 0 m²/s² 0 0 10 3
10:00 0 J/kg 10.4 K 0 % 0 % 0 % 0 m²/s² 0 0 11.03 3
11:00 1 J/kg 10.9 K 0 % 0 % 0 % 0 m²/s² 0 0 11.47 3
12:00 0 J/kg 11.0 K 0 % 0 % 0 % 0 m²/s² 0 0 11.54 3
13:00 2 J/kg 10.8 K 0 % 0 % 0 % 0 m²/s² 0 0 11.31 61
14:00 0 J/kg 10.2 K 0 % 0 % 0 % 0 m²/s² 0 0 10.71 61
15:00 0 J/kg 9.4 K 0 % 0 % 0 % 0 m²/s² 0 0 9.88 61
16:00 0 J/kg 9.2 K 0 % 0 % 0 % 0 m²/s² 0 0 9.62 61
17:00 0 J/kg 9.1 K 0 % 0 % 0 % 0 m²/s² 0 0 9.61 61
18:00 0 J/kg 8.0 K 0 % 0 % 0 % 0 m²/s² 0 0 8.57 61
19:00 1 J/kg 6.1 K 0 % 0 % 0 % 0 m²/s² 0 0 6.76 61
20:00 0 J/kg 4.5 K 0 % 0 % 0 % 0 m²/s² 0 0 5.16 61
21:00 0 J/kg 3.7 K 0 % 0 % 0 % 0 m²/s² 0 0 4.27 53
22:00 0 J/kg 1.7 K 0 % 0 % 0 % 0 m²/s² 0 0 2.24 61
23:00 0 J/kg 1.5 K 0 % 0 % 0 % 0 m²/s² 0 0 2.49 71
 07:21     18:11    Daglengte: 10:50 Vrijdag 28 Feb
00:00 6 J/kg 1.9 K 0 % 0 % 0 % 0 m²/s² 0 0 3.73 71
01:00 0 J/kg 2.5 K 0 % 0 % 0 % 0 m²/s² 0 0 7.45 3
02:00 0 J/kg 2.5 K 0 % 0 % 0 % 0 m²/s² 0 0 6.49 2
03:00 3 J/kg 3.9 K 0 % 0 % 0 % 0 m²/s² 0 0 9.09 2
04:00 22 J/kg 5.3 K 0 % 0 % 0 % 0 m²/s² 0 0 10.1 1
05:00 0 J/kg 7.1 K 0 % 0 % 0 % 0 m²/s² 0 0 13.43 2
06:00 0 J/kg 8.5 K 0 % 0 % 0 % 0 m²/s² 0 0 15.31 2
07:00 0 J/kg 9.0 K 0 % 0 % 0 % 0 m²/s² 0 0 14.76 2
08:00 0 J/kg 9.0 K 0 % 0 % 0 % 0 m²/s² 0 0 13.98 2
09:00 0 J/kg 9.7 K 0 % 0 % 0 % 0 m²/s² 0 0 14.08 2
10:00 0 J/kg 10.3 K 0 % 0 % 0 % 0 m²/s² 0 0 14.47 2
11:00 0 J/kg 10.2 K 0 % 0 % 0 % 0 m²/s² 0 0 14.61 3
12:00 0 J/kg 10.4 K 0 % 0 % 0 % 0 m²/s² 0 0 15.35 3
13:00 0 J/kg 10.2 K 0 % 0 % 0 % 0 m²/s² 0 0 15.3 3
14:00 12 J/kg 10.2 K 0 % 0 % 0 % 0 m²/s² 0 0 14.67 3
15:00 0 J/kg 11.4 K 0 % 0 % 0 % 0 m²/s² 0 0 14.52 3
16:00 0 J/kg 11.5 K 0 % 0 % 0 % 0 m²/s² 0 0 13.57 3
17:00 10 J/kg 11.6 K 0 % 0 % 0 % 0 m²/s² 0 0 12.86 3
Temp Baro Wind Neerslag
  EWN Forecast EWN WRFDA DWD ICON FMI HIRLAM MET Norway GFS
 07:27     18:05    Daglengte: 10:38 Vandaag
19:00 5.7° 996.2 hPa 4.3 m/s 1.0 mm 6.8° 992.3 hPa 3.8 m/s 1.3 mm 5.9° 997.2 hPa 4.6 m/s -0.5 mm 5.5° 994.9 hPa 2.9 m/s 0.0 mm 5.1° 996.5 hPa 4.6 m/s 6.5° 996.1 hPa 4.1 m/s
22:00 4.1° 994.8 hPa 4.0 m/s 4.7 mm 3.1° 992.0 hPa 3.8 m/s 10.8 mm 5.1° 994.8 hPa 3.0 m/s 1.7 mm 4.3° 994.1 hPa 4.4 m/s 0.0 mm 2.8° 995.1 hPa 4.1 m/s 4.1° 994.6 hPa 4.1 m/s
 07:25     18:07    Daglengte: 10:42 Morgen
01:00 4.4° 992.6 hPa 5.8 m/s 3.0 mm 3.2° 989.6 hPa 5.4 m/s 13.2 mm 4.9° 992.9 hPa 4.0 m/s 1.5 mm 5.3° 990.9 hPa 8.4 m/s 0.0 mm 3.6° 993.1 hPa 5.9 m/s 3.5° 993.5 hPa 5.0 m/s
04:00 2.5° 991.4 hPa 6.6 m/s 6.7 mm 0.7° 987.4 hPa 4.1 m/s 24.3 mm 3.4° 991.4 hPa 6.0 m/s 3.1 mm 1.7° 988.9 hPa 7.7 m/s 0.0 mm 2.4° 992.3 hPa 6.6 m/s 2.7° 992.0 hPa 5.5 m/s
07:00 2.5° 992.2 hPa 6.8 m/s 8.0 mm 2.9° 988.5 hPa 5.3 m/s 32.8 mm 3.0° 992.4 hPa 5.6 m/s 2.3 mm 3.7° 990.3 hPa 8.7 m/s 0.0 mm 1.3° 992.7 hPa 6.8 m/s 2.7° 992.4 hPa 4.3 m/s
10:00 3.1° 995.3 hPa 6.4 m/s 6.4 mm 3.4° 991.6 hPa 7.2 m/s 34.5 mm 3.3° 995.4 hPa 5.0 m/s 1.1 mm 4.5° 993.2 hPa 7.7 m/s 0.0 mm 2.8° 996.0 hPa 6.1 m/s 4.5° 994.8 hPa 5.3 m/s
13:00 5.4° 997.3 hPa 6.1 m/s 7.3 mm 6.0° 993.7 hPa 9.1 m/s 35.2 mm 5.7° 997.5 hPa 4.5 m/s 0.9 mm 6.6° 994.8 hPa 8.1 m/s 0.0 mm 5.1° 998.4 hPa 4.8 m/s 6.9° 997.8 hPa 6.5 m/s
16:00 5.2° 999.7 hPa 6.8 m/s 6.7 mm 5.6° 996.2 hPa 8.1 m/s 36.4 mm 5.9° 999.7 hPa 5.2 m/s 2.0 mm 6.1° 996.7 hPa 9.0 m/s 0.0 mm 4.4° 1000.7 hPa 6.6 m/s 6.5° 1000.0 hPa 7.0 m/s
19:00 3.9° 1002.9 hPa 5.9 m/s 7.8 mm 4.5° 999.1 hPa 6.5 m/s 37.3 mm 4.4° 1003.0 hPa 5.0 m/s 0.5 mm 4.9° 1000.1 hPa 7.3 m/s 0.0 mm 3.1° 1003.9 hPa 5.7 m/s 4.8° 1003.0 hPa 5.9 m/s
22:00 3.2° 1004.8 hPa 4.8 m/s 2.7 mm 3.5° 1000.9 hPa 5.5 m/s 37.6 mm 3.8° 1005.1 hPa 4.3 m/s 0.4 mm 3.4° 1002.3 hPa 6.1 m/s 0.0 mm 2.0° 1005.3 hPa 3.5 m/s 3.7° 1005.1 hPa 4.7 m/s
 07:23     18:09    Daglengte: 10:46 Donderdag 27 Feb
01:00 1.9° 1005.1 hPa 4.4 m/s 2.7 mm 1.5° 1002.1 hPa 5.0 m/s 38.2 mm 2.6° 1005.5 hPa 3.2 m/s 0.2 mm 2.5° 1002.7 hPa 6.0 m/s 0.0 mm 1.8° 1005.4 hPa 4.3 m/s 3.3° 1006.1 hPa 4.5 m/s
04:00 1.6° 1004.5 hPa 4.4 m/s 2.9 mm 1.8° 1001.4 hPa 5.6 m/s 40.3 mm 2.3° 1005.5 hPa 3.4 m/s 0.1 mm 2.5° 1002.7 hPa 6.0 m/s 0.0 mm 0.9° 1004.7 hPa 4.2 m/s 2.7° 1005.6 hPa 4.6 m/s
07:00 1.0° 1003.3 hPa 4.0 m/s 0.0 mm 1.5° 1000.0 hPa 4.5 m/s 40.8 mm 1.5° 1004.5 hPa 2.7 m/s 0.0 mm 1.2° 1003.5 hPa 5.1 m/s 0.0 mm 0.6° 1003.1 hPa 3.9 m/s 2.0° 1004.6 hPa 4.3 m/s
10:00 2.7° 1000.5 hPa 4.3 m/s 0.0 mm 3.1° 997.0 hPa 4.9 m/s 41.0 mm 3.4° 1002.6 hPa 3.5 m/s 0.0 mm 2.7° 1000.7 hPa 4.0 m/s 3.4° 1001.4 hPa 5.0 m/s
13:00 3.7° 995.9 hPa 5.0 m/s 8.4 mm 3.3° 991.3 hPa 7.0 m/s 43.0 mm 4.6° 997.9 hPa 4.6 m/s 0.3 mm 3.8° 996.8 hPa 4.1 m/s 2.8° 994.8 hPa 6.4 m/s
16:00 3.0° 992.2 hPa 3.8 m/s 8.8 mm 1.3° 984.0 hPa 5.4 m/s 48.8 mm 3.7° 993.6 hPa 4.0 m/s 1.8 mm 3.4° 994.8 hPa 1.7 m/s 1.3° 984.7 hPa 6.6 m/s
19:00 1.6° 995.2 hPa 3.8 m/s 12.6 mm 0.7° 988.4 hPa 6.1 m/s 65.9 mm 1.8° 995.5 hPa 2.2 m/s 3.7 mm 2.5° 999.1 hPa 3.3 m/s 0.4° 986.3 hPa 10.1 m/s
22:00 1.1° 1002.0 hPa 4.9 m/s 15.9 mm 0.6° 996.1 hPa 5.1 m/s 72.5 mm 1.0° 1000.8 hPa 2.7 m/s 0.8 mm 2.1° 1005.0 hPa 5.5 m/s 1.1° 997.5 hPa 6.9 m/s
 07:21     18:11    Daglengte: 10:50 Vrijdag 28 Feb
01:00 1.4° 1006.8 hPa 4.1 m/s 11.0 mm 1.3° 1001.8 hPa 4.1 m/s 75.5 mm 2.0° 1005.4 hPa 3.7 m/s 1.2 mm 1.3° 1009.2 hPa 4.6 m/s 1.8° 1005.2 hPa 4.6 m/s
04:00 1.4° 1009.8 hPa 4.7 m/s 0.0 mm 2.5° 1005.0 hPa 6.1 m/s 75.9 mm 2.0° 1009.8 hPa 3.0 m/s 0.0 mm 1.2° 1011.3 hPa 4.6 m/s 1.2° 1008.6 hPa 4.8 m/s
07:00 0.9° 1012.6 hPa 4.5 m/s 0.0 mm 0.5° 1007.8 hPa 5.3 m/s 76.0 mm 1.4° 1012.8 hPa 3.1 m/s 0.0 mm 0.9° 1013.9 hPa 4.6 m/s 1.2° 1011.5 hPa 5.3 m/s
10:00 3.3° 1014.0 hPa 4.6 m/s 0.0 mm 2.7° 1010.8 hPa 5.8 m/s 76.0 mm 3.5° 1015.2 hPa 3.9 m/s 0.0 mm 3.8° 1014.1 hPa 4.7 m/s 2.3° 1013.8 hPa 5.0 m/s
13:00 6.2° 1014.3 hPa 4.7 m/s 0.0 mm 5.0° 1011.8 hPa 5.4 m/s 76.0 mm 6.3° 1015.6 hPa 4.3 m/s 0.0 mm 6.8° 1014.3 hPa 4.7 m/s 4.1° 1014.9 hPa 4.9 m/s
16:00 5.9° 1012.3 hPa 4.7 m/s 0.0 mm 5.6° 1011.6 hPa 5.2 m/s 76.0 mm 7.1° 1014.3 hPa 4.0 m/s 0.0 mm 5.7° 1012.0 hPa 4.8 m/s 5.0° 1014.2 hPa 2.9 m/s
19:00 4.6° 1010.5 hPa 4.2 m/s 0.0 mm 4.5° 1011.2 hPa 3.3 m/s 76.0 mm 5.1° 1011.7 hPa 3.7 m/s 0.0 mm 4.5° 1009.7 hPa 4.8 m/s 3.2° 1014.1 hPa 1.8 m/s
22:00 4.1° 1005.3 hPa 6.7 m/s 35.5 mm 4.2° 1004.6 hPa 7.0 m/s 3.2° 1013.0 hPa 2.9 m/s 35.4 mm
 07:19     18:12    Daglengte: 10:53 Zaterdag 29 Feb
01:00 3.9° 1002.7 hPa 7.8 m/s 35.5 mm 4.0° 1002.0 hPa 8.1 m/s 2.9° 1009.9 hPa 4.4 m/s 35.4 mm
04:00 5.4° 998.8 hPa 7.2 m/s 35.5 mm 5.5° 998.1 hPa 7.3 m/s 3.8° 1005.5 hPa 5.6 m/s 35.5 mm
07:00 6.8° 995.0 hPa 6.4 m/s 38.6 mm 7.0° 994.3 hPa 6.5 m/s 4.8° 1002.2 hPa 5.3 m/s 38.6 mm
10:00 8.2° 991.8 hPa 6.5 m/s 38.6 mm 8.3° 991.1 hPa 6.7 m/s 7.2° 999.3 hPa 5.0 m/s 38.6 mm
13:00 9.7° 988.5 hPa 6.8 m/s 38.6 mm 9.6° 987.9 hPa 6.8 m/s 10.7° 995.2 hPa 6.8 m/s 38.6 mm
16:00 7.6° 991.2 hPa 5.9 m/s 39.1 mm 7.3° 991.2 hPa 5.8 m/s 10.5° 991.1 hPa 7.8 m/s 39.1 mm
19:00 5.2° 994.5 hPa 5.0 m/s 41.4 mm 5.0° 994.6 hPa 4.7 m/s 7.6° 993.3 hPa 8.8 m/s 41.4 mm
22:00 4.3° 997.6 hPa 6.0 m/s 41.8 mm 4.2° 997.5 hPa 5.8 m/s 5.1° 998.2 hPa 8.2 m/s 41.8 mm
 07:17     18:14    Daglengte: 10:57 Zondag 01 Maa
01:00 3.5° 1000.4 hPa 6.9 m/s 42.0 mm 3.4° 1000.4 hPa 6.8 m/s 4.3° 1000.3 hPa 7.8 m/s 42.0 mm
04:00 3.2° 1001.0 hPa 6.9 m/s 42.0 mm 3.1° 1001.0 hPa 6.8 m/s 4.3° 1001.3 hPa 7.4 m/s 42.0 mm
07:00 2.9° 1001.6 hPa 6.9 m/s 42.6 mm 2.9° 1001.6 hPa 6.8 m/s 2.6° 1002.0 hPa 7.9 m/s 42.6 mm
10:00 5.1° 1000.7 hPa 7.4 m/s 42.7 mm 5.2° 1000.5 hPa 7.4 m/s 4.9° 1002.6 hPa 6.9 m/s 42.7 mm
13:00 7.4° 999.7 hPa 8.0 m/s 42.7 mm 7.4° 999.5 hPa 8.1 m/s 6.8° 1001.5 hPa 7.5 m/s 42.7 mm
16:00 6.3° 995.9 hPa 8.1 m/s 42.8 mm 6.2° 995.5 hPa 8.3 m/s 7.5° 1000.0 hPa 5.6 m/s 42.8 mm
19:00 5.1° 992.1 hPa 8.2 m/s 42.8 mm 4.9° 991.5 hPa 8.6 m/s 7.0° 998.3 hPa 4.2 m/s 42.8 mm
22:00 4.7° 992.8 hPa 6.7 m/s 44.2 mm 4.6° 992.5 hPa 6.8 m/s 5.6° 996.0 hPa 4.9 m/s 44.2 mm
 07:15     18:16    Daglengte: 11:01 Maandag 02 Maa
01:00 4.4° 993.9 hPa 5.1 m/s 49.3 mm 4.3° 993.6 hPa 5.1 m/s 5.2° 996.7 hPa 5.3 m/s 49.3 mm
04:00 3.4° 994.9 hPa 3.5 m/s 49.7 mm 3.3° 994.5 hPa 3.3 m/s 4.8° 999.0 hPa 5.2 m/s 49.7 mm
07:00 2.4° 995.9 hPa 1.8 m/s 49.7 mm 2.3° 995.5 hPa 1.6 m/s 3.3° 1000.8 hPa 4.5 m/s 49.7 mm
10:00 4.8° 996.2 hPa 1.4 m/s 49.8 mm 4.8° 995.8 hPa 1.3 m/s 5.3° 1000.7 hPa 3.0 m/s 49.8 mm
13:00 7.3° 996.3 hPa 1.0 m/s 49.8 mm 7.2° 996.0 hPa 1.0 m/s 8.4° 1000.1 hPa 1.2 m/s 49.8 mm
16:00 6.2° 997.0 hPa 0.9 m/s 49.8 mm 6.1° 996.9 hPa 0.8 m/s 8.5° 999.1 hPa 1.6 m/s 49.8 mm
19:00 5.0° 998.0 hPa 0.7 m/s 49.8 mm 4.9° 997.7 hPa 0.6 m/s 5.8° 1001.0 hPa 1.8 m/s 49.8 mm
22:00 3.8° 999.9 hPa 1.1 m/s 49.8 mm 3.8° 999.5 hPa 1.0 m/s 4.8° 1003.8 hPa 1.7 m/s 49.8 mm
 07:12     18:18    Daglengte: 11:06 Dinsdag 03 Maa
01:00 2.7° 1001.8 hPa 1.4 m/s 49.8 mm 2.6° 1001.4 hPa 1.4 m/s 3.8° 1006.0 hPa 1.9 m/s 49.8 mm
04:00 1.5° 1004.7 hPa 1.5 m/s 49.8 mm 1.4° 1004.4 hPa 1.5 m/s 2.9° 1007.7 hPa 1.9 m/s 49.8 mm
07:00 0.4° 1007.6 hPa 1.6 m/s 49.8 mm 0.2° 1007.4 hPa 1.6 m/s 2.4° 1010.2 hPa 1.2 m/s 49.8 mm
10:00 3.6° 1009.9 hPa 3.2 m/s 49.8 mm 3.5° 1009.6 hPa 3.3 m/s 4.9° 1012.2 hPa 1.6 m/s 49.8 mm
13:00 6.8° 1012.0 hPa 4.9 m/s 49.8 mm 6.7° 1011.9 hPa 5.1 m/s 7.9° 1013.0 hPa 2.5 m/s 49.8 mm
16:00 5.3° 1013.5 hPa 3.6 m/s 49.8 mm 5.0° 1013.5 hPa 3.6 m/s 9.0° 1012.6 hPa 2.9 m/s 49.8 mm
19:00 3.6° 1014.9 hPa 2.2 m/s 49.8 mm 3.3° 1015.2 hPa 2.2 m/s 6.6° 1012.1 hPa 2.3 m/s 49.8 mm
 07:10     18:19    Daglengte: 11:09 Woensdag 04 Maa
01:00 1.5° 1017.1 hPa 2.0 m/s 50.0 mm 1.1° 1017.7 hPa 1.7 m/s 6.3° 1009.9 hPa 4.8 m/s 50.0 mm
07:00 -0.4° 1017.2 hPa 2.0 m/s 50.3 mm -1.1° 1018.2 hPa 1.7 m/s 6.7° 1006.4 hPa 5.7 m/s 50.3 mm
13:00 6.7° 1014.8 hPa 3.8 m/s 50.8 mm 6.4° 1015.6 hPa 3.8 m/s 10.0° 1006.5 hPa 4.1 m/s 50.8 mm
19:00 6.2° 1007.5 hPa 5.3 m/s 52.4 mm 6.0° 1008.1 hPa 5.6 m/s 8.0° 1001.2 hPa 2.4 m/s 52.4 mm
 07:08     18:21    Daglengte: 11:13 Donderdag 05 Maa
01:00 3.7° 996.3 hPa 7.0 m/s 60.0 mm 3.2° 996.5 hPa 7.1 m/s 8.6° 994.5 hPa 6.3 m/s 60.0 mm
07:00 2.6° 997.1 hPa 6.3 m/s 61.0 mm 2.4° 996.5 hPa 6.2 m/s 4.4° 1003.9 hPa 7.5 m/s 61.0 mm
13:00 4.5° 994.4 hPa 5.4 m/s 61.5 mm 4.4° 993.0 hPa 5.3 m/s 6.2° 1009.7 hPa 6.7 m/s 61.5 mm
19:00 4.3° 995.3 hPa 6.9 m/s 61.9 mm 4.2° 993.9 hPa 7.2 m/s 5.2° 1010.6 hPa 4.1 m/s 61.9 mm
 07:06     18:23    Daglengte: 11:17 Vrijdag 06 Maa
01:00 3.8° 1011.0 hPa 4.3 m/s 62.0 mm 3.8° 1011.0 hPa 4.3 m/s 62.0 mm
07:00 2.8° 1010.0 hPa 4.4 m/s 62.0 mm 2.8° 1010.0 hPa 4.4 m/s 62.0 mm
13:00 6.3° 1005.9 hPa 5.5 m/s 0.7 mm
19:00 4.6° 1005.9 hPa 3.2 m/s 0.7 mm
 07:04     18:25    Daglengte: 11:21 Zaterdag 07 Maa
01:00 3.6° 1005.1 hPa 4.1 m/s 0.6 mm
07:00 3.0° 1003.9 hPa 4.3 m/s 1.3 mm
13:00 7.0° 1004.0 hPa 4.4 m/s 0.6 mm
19:00 5.2° 1004.3 hPa 2.3 m/s 0.3 mm
 07:01     18:26    Daglengte: 11:25 Zondag 08 Maa
01:00 3.5° 1006.7 hPa 2.2 m/s 0.7 mm
07:00 2.4° 1008.4 hPa 1.4 m/s 0.7 mm
13:00 6.9° 1010.5 hPa 1.9 m/s 0.7 mm
19:00 4.9° 1012.0 hPa 0.7 m/s 0.6 mm
 06:59     18:28    Daglengte: 11:29 Maandag 09 Maa
01:00 3.0° 1013.0 hPa 1.2 m/s 0.3 mm
07:00 2.2° 1013.0 hPa 0.8 m/s 0.6 mm
13:00 7.3° 1013.6 hPa 0.9 m/s 0.7 mm
19:00 5.0° 1015.2 hPa 1.1 m/s 0.7 mm
 06:57     18:30    Daglengte: 11:33 Dinsdag 10 Maa
01:00 3.1° 1017.2 hPa 1.2 m/s 0.1 mm
07:00 2.3° 1018.1 hPa 1.3 m/s 0.2 mm
13:00 7.8° 1018.7 hPa 1.9 m/s 0.3 mm
19:00 5.7° 1019.4 hPa 1.5 m/s 0.5 mm
 06:55     18:31    Daglengte: 11:36 Woensdag 11 Maa
01:00 3.4° 1021.0 hPa 0.8 m/s 0.1 mm
07:00 2.4° 1021.1 hPa 0.1 m/s 0.1 mm
13:00 7.9° 1020.9 hPa 0.4 m/s 0.2 mm
FMI Hirlam - 7.5 km EWN WRFDA - 12 km DWD ICON - 7 km GFS - 25 km Basiskaart






























































Updatetijd (Europe/Brussels) Resolutie Lengte Stap
FMI Hirlam 13:00, 19:00, 01:00, 07:00 7.5 km 49h 1h
EWN WRFDA 14:15, 20:15, 02:15, 08:15 12 km 73h 1h
DWD ICON 17:00, 23:00, 05:00, 11:00 7 km 75h 1h
GFS 13:00, 19:00, 01:00, 07:00 25 km 237h 3h
30+ mm
25-30 mm
20-25 mm
15-20 mm
10-15 mm
6-10 mm
4-6 mm
2-4 mm
1-2 mm
0.5-1 mm
0.2-0.5 mm
0.1-0.2 mm
30+ mm
25-30 mm
20-25 mm
15-20 mm
10-15 mm
6-10 mm
4-6 mm
2-4 mm
1-2 mm
0.5-1 mm
0.2-0.5 mm
0.1-0.2 mm
Sneeuwval
Natte sneeuw
Hagel
Vorst
30+ mm
25-30 mm
20-25 mm
15-20 mm
10-15 mm
6-10 mm
4-6 mm
2-4 mm
1-2 mm
0.5-1 mm
0.2-0.5 mm
0.1-0.2 mm
Sneeuwval
Natte sneeuw
Hagel
Vorst
Onweer
50 mm
40 mm
30 mm
26 mm
22 mm
18 mm
14 mm
10 mm
9 mm
8 mm
7 mm
6 mm
5 mm
4.5 mm
4 mm
3.5 mm
3 mm
2.5 mm
2 mm
1.5 mm
1 mm
0.8 mm
0.6 mm
0.4 mm
0.2 mm
0.05 mm
35°
30°
25°
20°
15°
10°
-5°
-10°
-15°
-20°
-25°
-30°
-35°
33> m/s
29 m/s
25 m/s
21 m/s
17 m/s
14 m/s
11 m/s
8 m/s
5 m/s
3 m/s
0 m/s
2600 J/kg
2400 J/kg
2200 J/kg
2000 J/kg
1800 J/kg
1600 J/kg
1400 J/kg
1200 J/kg
1000 J/kg
800 J/kg
600 J/kg
400 J/kg
200 J/kg
70 dBZ
65 dBZ
60 dBZ
55 dBZ
50 dBZ
45 dBZ
40 dBZ
35 dBZ
30 dBZ
25 dBZ
20 dBZ
15 dBZ
10 dBZ
5 dBZ
-1 K
-2 K
-3 K
-4 K
-5 K
-6 K
-7 K
-8 K
-9 K
950 m²/s²
900 m²/s²
850 m²/s²
800 m²/s²
750 m²/s²
700 m²/s²
650 m²/s²
600 m²/s²
550 m²/s²
500 m²/s²
450 m²/s²
400 m²/s²
350 m²/s²
300 m²/s²
250 m²/s²
200 m²/s²
150 m²/s²
100 m²/s²
46 m/s
44 m/s
42 m/s
40 m/s
38 m/s
36 m/s
34 m/s
32 m/s
30 m/s
28 m/s
26 m/s
24 m/s
22 m/s
20 m/s
16 m/s
12 m/s
8 m/s
4 m/s
30 m/s
28 m/s
26 m/s
24 m/s
22 m/s
20 m/s
18 m/s
16 m/s
14 m/s
12 m/s
10 m/s
8 m/s
6 m/s
4 m/s
2 m/s
3.0
2.8
2.6
2.4
2.2
2.0
1.8
1.6
1.4
1.2
1.0
0.8
0.6
0.4
0.2
15
14
13
12
11
10
9
8
7
6
5
4
3
2
1
90%
80%
70%
60%
50%
40%
30%
20%
10%
42
40
38
36
34
32
30
28
26
24
22
20
18
16
14
12
90+ cm
80-90 cm
70-80 cm
60-70 cm
50-60 cm
40-50 cm
30-40 cm
20-30 cm
10-20 cm
1-10 cm
Sneeuwval
Natte sneeuw
Regen
>120 mm
115 mm
110 mm
105 mm
100 mm
95 mm
90 mm
85 mm
80 mm
75 mm
70 mm
65 mm
60 mm
55 mm
50 mm
45 mm
45 mm
40 mm
35 mm
30 mm
25 mm
20 mm
15 mm
10 mm
5 mm
0.1 mm
960 hPa
880 hPa
800 hPa
720 hPa
640 hPa
560 hPa
584 gpdm
568 gpdm
552 gpdm
536 gpdm
520 gpdm
504 gpdm
488 gpdm
Extreem zwaar Noodweer Kans op onweer
15% 15% 5% 50% 15%

Dag




Kaart






35°
30°
25°
20°
15°
10°
-5°
-10°
-15°
-20°
-25°
-30°
-35°
33> m/s
29 m/s
25 m/s
21 m/s
17 m/s
14 m/s
11 m/s
8 m/s
5 m/s
3 m/s
0 m/s
Extreem zwaar Noodweer Kans op onweer
15% 15% 5% 50% 15%
>120 mm
115 mm
110 mm
105 mm
100 mm
95 mm
90 mm
85 mm
80 mm
75 mm
70 mm
65 mm
60 mm
55 mm
50 mm